{"data":{"norad_id":87164,"epoch":"2026-09-18T05:21:40.445856Z","epoch_age_seconds":211061,"freshness":"STALE","line1":"1 87164U          26261.22338479  .00002768  00000+0  53482-3 0  9998","line2":"2 87164  65.2015 234.2380 0121299 296.7328  62.1400 14.60671145676568","mean_motion":14.60671145,"eccentricity":0.0121299,"inclination_deg":65.2015,"raan_deg":234.238,"arg_perigee_deg":296.7328,"mean_anomaly_deg":62.14,"bstar":0.00053482,"rev_number":67656,"period_min":98.584818693054,"perigee_km":605.259733287,"apogee_km":776.75577114683,"semimajor_km":7069.1447522169,"source":"CELESTRAK","updated_at":"2026-09-20T09:00:32.451061Z"}}